| time (UTC) | temp F | wind direction | speed knots | gust knots | rain 1hr in | rain 24hr in | rain mn in | humidity % | barometer mb |
| 20260504193511 | 81 | 90 | 0.0 | 2.6 | 0.00 | 0.00 | 0.00 | 28 | 1012.7 |
| 20260504193011 | 81 | 159 | 0.9 | 2.6 | 0.00 | 0.00 | 0.00 | 29 | 1012.7 |
| 20260504192509 | 81 | 142 | 0.9 | 2.6 | 0.00 | 0.00 | 0.00 | 30 | 1012.9 |
| 20260504192011 | 80 | 142 | 0.0 | 3.5 | 0.00 | 0.00 | 0.00 | 30 | 1012.9 |
| 20260504191507 | 80 | 142 | 0.9 | 3.5 | 0.00 | 0.00 | 0.00 | 30 | 1013.0 |
| 20260504191006 | 79 | 138 | 0.9 | 2.6 | 0.00 | 0.00 | 0.00 | 29 | 1013.1 |
| 20260504190505 | 79 | 146 | 0.9 | 7.8 | 0.00 | 0.00 | 0.00 | 31 | 1013.1 |
| 20260504190010 | 78 | 125 | 0.9 | 7.8 | 0.00 | 0.00 | 0.00 | 31 | 1013.1 |
| 20260504185502 | 78 | 195 | 1.7 | 6.1 | 0.00 | 0.00 | 0.00 | 31 | 1013.3 |
| 20260504185005 | 77 | 152 | 1.7 | 4.3 | 0.00 | 0.00 | 0.00 | 31 | 1013.4 |
| 20260504184504 | 77 | 224 | 0.9 | 3.5 | 0.00 | 0.00 | 0.00 | 34 | 1013.4 |
| 20260504184001 | 77 | 224 | 0.9 | 2.6 | 0.00 | 0.00 | 0.00 | 32 | 1013.4 |
| 20260504183502 | 77 | 224 | 0.0 | 2.6 | 0.00 | 0.00 | 0.00 | 33 | 1013.3 |
| 20260504183001 | 77 | 224 | 0.9 | 2.6 | 0.00 | 0.00 | 0.00 | 31 | 1013.4 |
| 20260504182600 | 77 | 217 | 0.9 | 2.6 | 0.00 | 0.00 | 0.00 | 31 | 1013.5 |
| 20260504182059 | 77 | 217 | 0.9 | 3.5 | 0.00 | 0.00 | 0.00 | 31 | 1013.5 |
| 20260504181559 | 77 | 190 | 1.7 | 3.5 | 0.00 | 0.00 | 0.00 | 30 | 1013.8 |
| 20260504181058 | 77 | 149 | 1.7 | 7.8 | 0.00 | 0.00 | 0.00 | 30 | 1013.8 |
| 20260504180559 | 76 | 214 | 1.7 | 7.8 | 0.00 | 0.00 | 0.00 | 30 | 1013.8 |
| 20260504180137 | 76 | 190 | 0.9 | 5.2 | 0.00 | 0.00 | 0.00 | 31 | 1014.1 |
| 20260504175557 | 76 | 179 | 1.7 | 5.2 | 0.00 | 0.00 | 0.00 | 31 | 1014.2 |
| 20260504175056 | 76 | 198 | 1.7 | 3.5 | 0.00 | 0.00 | 0.00 | 32 | 1014.2 |
| 20260504174554 | 76 | 223 | 0.9 | 5.2 | 0.00 | 0.00 | 0.00 | 32 | 1014.2 |
| 20260504174055 | 76 | 215 | 1.7 | 5.2 | 0.00 | 0.00 | 0.00 | 31 | 1014.3 |
| 20260504173554 | 76 | 196 | 0.9 | 4.3 | 0.00 | 0.00 | 0.00 | 34 | 1014.3 |
| 20260504173053 | 77 | 145 | 1.7 | 4.3 | 0.00 | 0.00 | 0.00 | 33 | 1014.4 |
| 20260504172553 | 77 | 214 | 0.0 | 3.5 | 0.00 | 0.00 | 0.00 | 32 | 1014.4 |
| 20260504172056 | 77 | 213 | 0.9 | 3.5 | 0.00 | 0.00 | 0.00 | 32 | 1014.5 |
| 20260504171553 | 77 | 199 | 0.0 | 3.5 | 0.00 | 0.00 | 0.00 | 32 | 1014.5 |
| 20260504171052 | 77 | 198 | 0.9 | 3.5 | 0.00 | 0.00 | 0.00 | 32 | 1014.7 |
| 20260504170551 | 77 | 163 | 0.9 | 2.6 | 0.00 | 0.00 | 0.00 | 30 | 1014.6 |
| 20260504151027 | 73 | 175 | 1.7 | 4.3 | 0.00 | 0.00 | 0.00 | 35 | 1015.8 |
| 20260504150526 | 73 | 151 | 0.9 | 7.0 | 0.00 | 0.00 | 0.00 | 35 | 1015.8 |
| 20260504141010 | 66 | 115 | 0.9 | 3.5 | 0.00 | 0.00 | 0.00 | 44 | 1016.0 |
| 20260504140508 | 65 | 127 | 0.0 | 1.7 | 0.00 | 0.00 | 0.00 | 47 | 1016.1 |
| 20260504130552 | 60 | 213 | 0.0 | 1.7 | 0.00 | 0.00 | 0.00 | 52 | 1016.3 |
| 20260504110525 | 51 | 130 | 0.9 | 1.7 | 0.00 | 0.00 | 0.00 | 55 | 1016.7 |
| 20260504100519 | 51 | 126 | 0.0 | 1.7 | 0.00 | 0.00 | 0.00 | 56 | 1016.5 |
| 20260504081512 | 50 | 140 | 0.0 | 0.0 | 0.00 | 0.00 | 0.00 | 56 | 1016.9 |
| 20260504081013 | 50 | 140 | 0.0 | 0.0 | 0.00 | 0.00 | 0.00 | 56 | 1016.9 |
| 20260504080512 | 50 | 140 | 0.0 | 0.0 | 0.00 | 0.00 | 0.00 | 56 | 1016.9 |
| 20260504060106 | 46 | 129 | 0.0 | 1.7 | 0.00 | 0.00 | 0.00 | 35 | 1017.0 |
| 20260504050551 | 46 | 111 | 0.0 | 1.7 | 0.00 | 0.00 | 0.00 | 39 | 1016.9 |
| 20260504045549 | 46 | 113 | 0.9 | 1.7 | 0.00 | 0.00 | 0.00 | 41 | 1016.8 |
| 20260504045048 | 46 | 119 | 0.0 | 1.7 | 0.00 | 0.00 | 0.00 | 41 | 1016.8 |
| 20260504044547 | 46 | 241 | 0.0 | 0.0 | 0.00 | 0.00 | 0.00 | 41 | 1016.8 |
| 20260504044047 | 46 | 241 | 0.0 | 0.0 | 0.00 | 0.00 | 0.00 | 41 | 1016.8 |
| 20260504043549 | 46 | 241 | 0.0 | 0.0 | 0.00 | 0.00 | 0.00 | 41 | 1016.8 |
| 20260504043055 | 46 | 241 | 0.0 | 0.0 | 0.00 | 0.00 | 0.00 | 42 | 1016.8 |
| 20260504042547 | 46 | 241 | 0.0 | 0.0 | 0.00 | 0.00 | 0.00 | 42 | 1016.8 |
| 20260504042049 | 46 | 241 | 0.0 | 0.0 | 0.00 | 0.00 | 0.00 | 42 | 1016.9 |
| 20260504041545 | 47 | 241 | 0.0 | 0.0 | 0.00 | 0.00 | 0.00 | 42 | 1016.9 |
| 20260504041043 | 47 | 241 | 0.0 | 0.0 | 0.00 | 0.00 | 0.00 | 43 | 1016.8 |
| 20260504040543 | 47 | 241 | 0.0 | 0.0 | 0.00 | 0.00 | 0.00 | 44 | 1016.8 |
| 20260504040044 | 47 | 241 | 0.0 | 0.0 | 0.00 | 0.00 | 0.00 | 44 | 1016.8 |
| 20260504035540 | 47 | 241 | 0.0 | 0.0 | 0.00 | 0.00 | 0.00 | 45 | 1016.9 |
| 20260504035044 | 47 | 241 | 0.0 | 0.0 | 0.00 | 0.00 | 0.00 | 46 | 1016.8 |
| 20260504034539 | 47 | 241 | 0.0 | 0.0 | 0.00 | 0.00 | 0.00 | 46 | 1016.9 |
| 20260504034035 | 47 | 241 | 0.0 | 0.0 | 0.00 | 0.00 | 0.00 | 47 | 1016.9 |
| 20260504033534 | 47 | 241 | 0.0 | 0.0 | 0.00 | 0.00 | 0.00 | 48 | 1016.8 |
| 20260504033037 | 47 | 241 | 0.0 | 0.0 | 0.00 | 0.00 | 0.00 | 48 | 1017.0 |
| 20260504032532 | 47 | 241 | 0.0 | 0.0 | 0.00 | 0.00 | 0.00 | 48 | 1016.8 |
| 20260504032033 | 48 | 241 | 0.0 | 0.0 | 0.00 | 0.00 | 0.00 | 49 | 1016.8 |
| 20260504031529 | 48 | 241 | 0.0 | 0.0 | 0.00 | 0.00 | 0.00 | 49 | 1016.8 |
| 20260504031027 | 48 | 241 | 0.0 | 0.0 | 0.00 | 0.00 | 0.00 | 50 | 1016.8 |
| 20260504030526 | 48 | 241 | 0.0 | 0.0 | 0.00 | 0.00 | 0.00 | 51 | 1016.7 |
| 20260504030024 | 48 | 241 | 0.0 | 0.0 | 0.00 | 0.00 | 0.00 | 51 | 1016.7 |
| 20260504025525 | 48 | 241 | 0.0 | 0.0 | 0.00 | 0.00 | 0.00 | 52 | 1016.8 |
| 20260504025023 | 48 | 241 | 0.0 | 0.0 | 0.00 | 0.00 | 0.00 | 52 | 1016.7 |
| 20260504024519 | 48 | 241 | 0.0 | 0.0 | 0.00 | 0.00 | 0.00 | 52 | 1016.8 |
| 20260504024019 | 49 | 241 | 0.0 | 0.0 | 0.00 | 0.00 | 0.00 | 52 | 1016.8 |
| 20260504023517 | 49 | 241 | 0.0 | 0.0 | 0.00 | 0.00 | 0.00 | 52 | 1016.8 |
| 20260504023016 | 49 | 241 | 0.0 | 0.0 | 0.00 | 0.00 | 0.00 | 52 | 1016.8 |
| 20260504022515 | 49 | 241 | 0.0 | 0.0 | 0.00 | 0.00 | 0.00 | 53 | 1016.8 |
| 20260504022015 | 49 | 241 | 0.0 | 0.0 | 0.00 | 0.00 | 0.00 | 53 | 1016.7 |
| 20260504021515 | 49 | 241 | 0.0 | 0.0 | 0.00 | 0.00 | 0.00 | 53 | 1016.7 |
| 20260504021012 | 50 | 241 | 0.0 | 0.0 | 0.00 | 0.00 | 0.00 | 54 | 1016.8 |
| 20260504020511 | 50 | 241 | 0.0 | 0.0 | 0.00 | 0.00 | 0.00 | 54 | 1016.8 |
| 20260504020009 | 50 | 241 | 0.0 | 0.0 | 0.00 | 0.00 | 0.00 | 54 | 1016.8 |
| 20260504015508 | 50 | 241 | 0.0 | 0.0 | 0.00 | 0.00 | 0.00 | 54 | 1016.7 |
| 20260504015007 | 51 | 241 | 0.0 | 0.0 | 0.00 | 0.00 | 0.00 | 54 | 1016.6 |
| 20260504014505 | 51 | 241 | 0.0 | 0.0 | 0.00 | 0.00 | 0.00 | 55 | 1016.6 |
| 20260504014003 | 51 | 241 | 0.0 | 0.0 | 0.00 | 0.00 | 0.00 | 55 | 1016.6 |
| 20260504013503 | 51 | 241 | 0.0 | 0.0 | 0.00 | 0.00 | 0.00 | 56 | 1016.6 |
| 20260504013107 | 52 | 241 | 0.0 | 0.0 | 0.00 | 0.00 | 0.00 | 56 | 1016.7 |
| 20260504012559 | 52 | 241 | 0.0 | 0.0 | 0.00 | 0.00 | 0.00 | 56 | 1016.6 |
| 20260504012058 | 52 | 241 | 0.0 | 0.0 | 0.00 | 0.00 | 0.00 | 56 | 1016.6 |
| 20260504011556 | 52 | 241 | 0.0 | 0.0 | 0.00 | 0.00 | 0.00 | 56 | 1016.5 |
| 20260504011057 | 53 | 241 | 0.0 | 0.0 | 0.00 | 0.00 | 0.00 | 56 | 1016.4 |
| 20260504010553 | 53 | 241 | 0.0 | 0.0 | 0.00 | 0.00 | 0.00 | 55 | 1016.5 |
| 20260504010052 | 53 | 241 | 0.0 | 0.0 | 0.00 | 0.00 | 0.00 | 54 | 1016.6 |
| 20260504005551 | 54 | 241 | 0.0 | 0.0 | 0.00 | 0.00 | 0.00 | 53 | 1016.6 |
| 20260504005050 | 54 | 241 | 0.0 | 0.0 | 0.00 | 0.00 | 0.00 | 53 | 1016.7 |
| 20260504004548 | 54 | 241 | 0.0 | 0.0 | 0.00 | 0.00 | 0.00 | 52 | 1016.5 |
| 20260504004046 | 55 | 241 | 0.0 | 0.0 | 0.00 | 0.00 | 0.00 | 52 | 1016.5 |
| 20260504003544 | 55 | 241 | 0.0 | 0.0 | 0.00 | 0.00 | 0.00 | 51 | 1016.4 |
| 20260504003046 | 55 | 241 | 0.0 | 0.0 | 0.00 | 0.00 | 0.00 | 49 | 1016.3 |
| 20260504002545 | 56 | 241 | 0.0 | 0.0 | 0.00 | 0.00 | 0.00 | 48 | 1016.3 |
| 20260504002040 | 56 | 241 | 0.0 | 0.0 | 0.00 | 0.00 | 0.00 | 47 | 1016.3 |
| 20260504001540 | 57 | 241 | 0.0 | 0.0 | 0.00 | 0.00 | 0.00 | 47 | 1016.2 |
| 20260504001038 | 57 | 241 | 0.0 | 0.0 | 0.00 | 0.00 | 0.00 | 46 | 1016.1 |
| 20260504000540 | 57 | 241 | 0.0 | 0.0 | 0.00 | 0.00 | 0.00 | 44 | 1016.0 |
| 20260504000038 | 58 | 241 | 0.0 | 0.0 | 0.00 | 0.00 | 0.00 | 44 | 1016.0 |
| 20260503235533 | 58 | 241 | 0.0 | 0.0 | 0.00 | 0.00 | 0.00 | 43 | 1016.0 |
| 20260503235032 | 58 | 241 | 0.0 | 0.0 | 0.00 | 0.00 | 0.00 | 42 | 1015.8 |
| 20260503234530 | 59 | 241 | 0.0 | 0.0 | 0.00 | 0.00 | 0.00 | 41 | 1015.8 |
| 20260503234029 | 59 | 241 | 0.0 | 0.0 | 0.00 | 0.00 | 0.00 | 40 | 1015.8 |
| 20260503233528 | 59 | 241 | 0.0 | 0.0 | 0.00 | 0.00 | 0.00 | 41 | 1015.8 |
| 20260503233026 | 59 | 241 | 0.0 | 0.0 | 0.00 | 0.00 | 0.00 | 42 | 1015.8 |
| 20260503232524 | 60 | 241 | 0.0 | 0.0 | 0.00 | 0.00 | 0.00 | 42 | 1015.8 |
| 20260503232023 | 60 | 241 | 0.0 | 0.0 | 0.00 | 0.00 | 0.00 | 42 | 1015.7 |
| 20260503231523 | 60 | 241 | 0.0 | 0.0 | 0.00 | 0.00 | 0.00 | 40 | 1015.7 |
| 20260503231020 | 60 | 241 | 0.0 | 0.0 | 0.00 | 0.00 | 0.00 | 39 | 1015.7 |
| 20260503230521 | 60 | 241 | 0.0 | 0.0 | 0.00 | 0.00 | 0.00 | 38 | 1015.6 |
| 20260503230018 | 60 | 241 | 0.0 | 0.0 | 0.00 | 0.00 | 0.00 | 38 | 1015.7 |
| 20260503225516 | 60 | 241 | 0.0 | 0.0 | 0.00 | 0.00 | 0.00 | 37 | 1015.8 |
| 20260503225014 | 61 | 241 | 0.0 | 0.0 | 0.00 | 0.00 | 0.00 | 35 | 1015.8 |
| 20260503224513 | 61 | 241 | 0.0 | 0.0 | 0.00 | 0.00 | 0.00 | 37 | 1015.7 |
| 20260503224011 | 61 | 241 | 0.0 | 0.0 | 0.00 | 0.00 | 0.00 | 35 | 1015.7 |
| 20260503223510 | 61 | 241 | 0.0 | 0.0 | 0.00 | 0.00 | 0.00 | 36 | 1015.8 |
| 20260503223009 | 61 | 241 | 0.0 | 0.9 | 0.00 | 0.00 | 0.00 | 35 | 1015.8 |
| 20260503222508 | 61 | 241 | 0.0 | 0.9 | 0.00 | 0.00 | 0.00 | 35 | 1015.9 |
| 20260503222005 | 61 | 241 | 0.0 | 0.0 | 0.00 | 0.00 | 0.00 | 35 | 1015.8 |
| 20260503221506 | 61 | 241 | 0.0 | 0.9 | 0.00 | 0.00 | 0.00 | 35 | 1015.9 |
| 20260503221003 | 61 | 241 | 0.0 | 0.9 | 0.00 | 0.00 | 0.00 | 34 | 1015.9 |
| 20260503220504 | 61 | 241 | 0.0 | 1.7 | 0.00 | 0.00 | 0.00 | 33 | 1016.1 |
| 20260503220101 | 61 | 241 | 0.0 | 1.7 | 0.00 | 0.00 | 0.00 | 33 | 1016.1 |
| 20260503215558 | 61 | 241 | 0.0 | 2.6 | 0.00 | 0.00 | 0.00 | 33 | 1016.2 |
| 20260503215057 | 61 | 241 | 0.0 | 3.5 | 0.00 | 0.00 | 0.00 | 33 | 1016.1 |
| 20260503214555 | 61 | 242 | 0.9 | 2.6 | 0.00 | 0.00 | 0.00 | 33 | 1016.2 |
| 20260503214054 | 62 | 242 | 0.0 | 3.5 | 0.00 | 0.00 | 0.00 | 32 | 1016.2 |
| 20260503213553 | 62 | 129 | 0.0 | 0.0 | 0.00 | 0.00 | 0.00 | 31 | 1016.1 |
| 20260503213100 | 62 | 129 | 0.0 | 1.7 | 0.00 | 0.00 | 0.00 | 32 | 1016.1 |
| 20260503212550 | 62 | 129 | 0.9 | 2.6 | 0.00 | 0.00 | 0.00 | 32 | 1016.1 |
| 20260503212047 | 62 | 130 | 0.9 | 2.6 | 0.00 | 0.00 | 0.00 | 32 | 1016.1 |
| 20260503211605 | 62 | 116 | 0.0 | 2.6 | 0.00 | 0.00 | 0.00 | 33 | 1015.9 |
| 20260503211045 | 62 | 226 | 0.0 | 1.7 | 0.00 | 0.00 | 0.00 | 31 | 1015.9 |
| 20260503210546 | 62 | 290 | 0.0 | 2.6 | 0.00 | 0.00 | 0.00 | 31 | 1016.0 |
| 20260503210043 | 63 | 290 | 0.0 | 3.5 | 0.00 | 0.00 | 0.00 | 30 | 1016.0 |
| 20260503205541 | 63 | 268 | 0.0 | 3.5 | 0.00 | 0.00 | 0.00 | 30 | 1016.1 |
| 20260503205039 | 63 | 268 | 0.0 | 2.6 | 0.00 | 0.00 | 0.00 | 30 | 1016.1 |
| 20260503204538 | 64 | 268 | 0.9 | 2.6 | 0.00 | 0.00 | 0.00 | 30 | 1016.0 |
| 20260503204037 | 64 | 265 | 0.9 | 3.5 | 0.00 | 0.00 | 0.00 | 30 | 1016.1 |
| 20260503203536 | 64 | 266 | 1.7 | 3.5 | 0.00 | 0.00 | 0.00 | 30 | 1016.0 |
| 20260503203039 | 65 | 360 | 0.9 | 2.6 | 0.00 | 0.00 | 0.00 | 29 | 1016.0 |
| 20260503202532 | 65 | 49 | 0.0 | 2.6 | 0.00 | 0.00 | 0.00 | 28 | 1016.1 |
| 20260503202030 | 66 | 63 | 0.0 | 2.6 | 0.00 | 0.00 | 0.00 | 29 | 1016.2 |
| 20260503201529 | 66 | 315 | 0.9 | 2.6 | 0.00 | 0.00 | 0.00 | 28 | 1016.2 |
| 20260503201027 | 67 | 12 | 0.9 | 2.6 | 0.00 | 0.00 | 0.00 | 28 | 1016.2 |
| 20260503200526 | 67 | 339 | 0.9 | 2.6 | 0.00 | 0.00 | 0.00 | 29 | 1016.3 |
| 20260503200033 | 66 | 5 | 0.9 | 2.6 | 0.00 | 0.00 | 0.00 | 29 | 1016.3 |
| 20260503195524 | 66 | 355 | 0.9 | 2.6 | 0.00 | 0.00 | 0.00 | 29 | 1016.5 |
| 20260503195021 | 67 | 303 | 0.9 | 3.5 | 0.00 | 0.00 | 0.00 | 29 | 1016.7 |
| 20260503194520 | 67 | 234 | 0.9 | 5.2 | 0.00 | 0.00 | 0.00 | 29 | 1016.7 |
| 20260503194018 | 66 | 336 | 0.9 | 5.2 | 0.00 | 0.00 | 0.00 | 28 | 1016.7 |